Wind_Speed
26 27 26 25 21 22 23 24 23 23 23 21 21 21 21 19 19 20 16 12 18 17 17 17 17 17 16 17 18 19 21 26 25 24 23 23 22 21 23 24 26 27 27 25 25
25 25 26 26 25 25 24 24 25 25 24 24 24 24 24 23 20 21 12 19 19 18 18 17 16 16 16 17 20 21 25 24 21 22 23 23 23 22 22 23 26 28 27 26 26
29 29 28 28 29 28 28 28 26 27 28 28 26 26 25 24 24 13 17 20 18 18 16 14 15 15 16 16 19 22 26 24 22 23 24 24 25 25 25 26 27 27 29 29 29
29 29 30 29 31 30 27 27 26 28 29 28 28 26 25 24 17 19 22 18 19 17 17 18 19 19 18 19 20 23 23 23 23 23 26 26 27 29 29 27 27 26 25 25 26
33 31 31 30 30 31 31 30 29 28 29 30 28 26 23 20 18 20 17 18 16 17 19 20 20 18 18 18 19 23 24 25 25 25 26 28 28 28 30 27 25 25 28 29 30
31 32 32 31 31 32 33 32 30 28 27 28 24 22 21 18 16 17 18 16 16 17 19 19 18 17 19 20 21 23 25 26 28 29 32 33 33 33 34 29 32 33 34 34 33
32 34 35 36 35 33 31 30 30 28 27 26 24 21 20 18 18 18 15 15 19 24 25 20 17 16 18 20 21 21 25 25 26 28 31 32 38 38 30 32 30 30 32 33 32
31 32 32 34 36 35 32 28 27 26 26 25 22 23 19 18 16 13 15 20 25 28 22 19 17 18 20 19 22 23 23 21 11 16 20 21 33 24 19 18 15 18 22 23 25
28 29 30 31 32 33 32 30 27 24 23 23 23 20 19 14 12 16 22 28 28 23 17 14 16 16 15 15 15 11 12 16 16 13 14 17 23 18 18 21 23 23 25 29 30
24 27 27 28 29 29 29 27 26 24 20 20 20 16 13 15 20 25 24 22 20 16 13 12 12 14 13 12 7 9 16 18 20 14 20 24 28 23 24 27 26 26 27 27 25
26 23 24 25 26 26 24 24 22 20 19 19 18 20 21 22 20 12 13 13 12 9 10 12 14 15 11 14 13 16 19 21 19 21 27 24 26 20 21 26 29 29 28 27 27
28 23 22 21 22 23 22 22 22 21 18 17 19 18 15 11 10 6 6 9 11 12 14 18 19 10 13 13 16 17 20 21 21 18 25 25 31 30 30 28 27 28 30 24 17
31 27 22 19 19 21 21 22 19 18 18 14 14 8 5 5 2 1 5 7 8 10 13 14 11 17 17 15 16 18 19 21 23 22 22 25 24 11 9 10 10 9 11 12 19
31 28 25 20 18 17 18 19 18 16 11 6 6 3 3 3 5 8 11 12 13 9 10 12 8 10 11 14 14 20 17 15 18 17 7 13 7 14 15 13 10 9 10 17 27
31 29 27 23 19 17 15 15 16 10 4 3 4 4 2 5 9 10 12 15 14 15 14 9 15 14 15 15 15 15 17 16 20 21 18 12 7 4 5 6 6 8 15 25 32
31 29 27 26 21 17 14 12 10 3 5 4 3 6 10 9 12 12 11 10 13 13 14 16 16 17 15 13 13 14 15 17 14 7 2 3 7 3 3 2 6 11 22 29 25
31 27 26 25 21 17 13 10 6 6 5 5 6 10 14 15 13 9 7 10 10 8 7 12 15 15 14 13 10 7 9 4 3 1 4 3 6 8 7 6 8 19 26 25 24
31 26 25 24 21 17 14 9 9 6 6 6 7 12 12 5 6 7 14 10 8 11 13 5 6 5 5 7 6 9 5 3 4 2 4 6 6 2 4 5 15 26 27 25 26
29 26 23 23 20 16 14 13 6 9 9 8 10 4 3 3 7 10 8 10 9 8 5 5 5 9 10 11 9 3 4 4 5 7 3 4 5 8 3 8 21 25 25 22 25
27 25 21 21 17 16 14 15 11 13 9 6 3 3 3 5 9 5 6 7 8 6 6 6 10 10 8 9 10 11 7 2 5 2 4 4 5 5 4 12 22 25 22 22 24
25 25 22 17 15 17 15 13 13 13 13 10 6 5 5 7 6 7 6 8 7 10 12 11 8 6 9 7 7 7 9 8 5 4 3 2 3 3 8 20 27 26 23 26 26
22 23 20 18 17 18 19 14 13 12 10 10 8 8 8 6 7 4 5 6 13 12 13 10 8 11 8 10 11 11 11 11 5 3 4 1 7 4 15 23 31 23 22 25 26
24 23 22 19 19 23 16 14 15 12 10 5 6 7 7 9 4 7 7 7 12 9 8 13 6 8 4 5 12 13 17 18 14 10 8 3 4 15 24 26 26 20 21 23 21
23 16 23 24 24 19 14 15 15 10 9 9 7 7 7 8 8 7 11 11 10 18 16 12 14 14 10 10 10 9 11 11 11 7 5 14 23 18 27 31 20 17 20 20 20
28 25 22 13 24 22 16 11 13 8 10 7 6 8 7 5 9 13 10 12 17 18 11 10 12 15 18 18 20 24 23 18 19 18 11 13 22 26 30 17 14 14 17 17 16
24 31 24 19 20 14 18 14 13 12 8 7 9 8 10 11 10 17 19 17 14 15 11 11 11 16 24 15 14 19 19 18 23 28 31 30 28 16 13 10 8 13 15 15 14
34 23 23 16 21 16 17 15 11 13 10 11 9 8 8 10 13 14 17 20 22 24 24 19 13 8 6 9 14 13 2 10 18 22 23 23 14 11 10 7 6 12 11 12 11
Wind_Direction
304 305 306 312 308 299 298 299 298 298 301 298 299 305 307 311 312 318 315 304 315 310 303 293 284 279 275 273 272 268 259 263 270 276 276 275 275 273 266 259 259 261 265 270 276
316 311 305 307 308 307 304 299 299 296 298 297 300 304 306 310 312 315 299 312 310 306 301 297 294 289 282 276 272 267 265 272 275 275 273 273 272 270 265 264 266 267 272 277 276
313 310 307 304 303 301 300 296 297 295 294 297 296 301 299 305 309 302 301 307 301 298 298 301 297 291 285 278 273 268 270 275 274 271 271 270 270 269 269 268 271 273 271 273 274
315 312 309 307 305 304 301 296 294 292 291 291 290 292 294 302 306 295 300 296 295 290 296 301 295 289 285 282 276 269 274 274 276 274 274 277 275 271 268 271 271 276 275 271 269
309 305 305 305 305 305 304 300 297 291 291 290 287 290 289 296 292 292 294 295 285 292 300 299 293 286 280 274 272 276 279 281 283 280 279 280 274 274 268 270 274 276 278 277 273
309 306 303 300 299 300 300 298 295 292 290 289 290 293 294 300 295 293 295 282 275 293 305 299 290 281 276 276 272 275 279 280 279 282 284 280 277 270 271 275 275 275 275 273 273
306 304 302 299 295 294 292 292 291 289 283 288 289 292 295 295 292 290 277 263 276 290 299 294 285 277 280 283 279 282 282 280 281 282 278 281 277 279 281 274 273 269 267 267 267
309 306 301 297 296 295 293 288 285 283 284 283 288 292 294 290 283 270 257 266 286 295 291 281 275 277 276 280 278 282 285 290 308 292 286 284 281 293 281 276 277 276 268 266 267
313 311 307 301 296 293 292 289 284 282 281 283 284 287 290 276 254 258 276 286 290 287 284 271 275 276 276 278 281 275 279 298 313 315 297 290 285 287 284 285 288 281 274 272 277
316 315 311 306 301 297 293 290 285 282 280 279 282 279 254 264 276 284 294 299 299 297 276 276 270 271 274 272 271 286 297 298 302 311 296 289 291 292 289 288 282 277 278 279 277
316 316 313 309 304 299 295 291 288 281 280 275 267 267 277 287 293 309 315 315 307 288 275 282 275 273 282 280 271 285 294 293 306 304 294 297 293 297 287 276 277 275 276 274 284
312 313 312 311 308 304 300 293 287 280 275 273 269 276 275 286 313 301 335 322 311 295 280 283 284 268 264 274 283 283 291 297 308 304 300 300 295 295 281 277 276 262 263 273 274
308 308 305 305 304 304 303 301 293 291 295 279 263 256 281 304 230 311 343 342 328 302 285 276 284 281 285 282 280 287 288 300 296 305 300 303 304 295 288 280 280 257 253 275 296
301 302 300 295 296 298 300 302 297 299 296 273 214 228 297 315 237 299 297 296 299 301 291 289 287 289 284 282 287 293 296 295 298 304 292 299 287 285 280 273 271 272 277 296 305
297 297 296 290 289 291 293 295 290 303 345 209 215 203 302 338 303 290 297 294 296 288 279 277 282 282 278 283 289 285 291 296 294 289 292 285 231 269 279 273 277 290 303 308 310
288 291 292 288 284 284 291 277 278 246 255 202 223 243 285 284 307 304 296 298 297 290 284 283 270 278 280 283 285 282 292 297 290 273 279 209 217 271 263 287 309 319 307 310 311
278 282 283 282 278 278 276 262 231 211 212 207 237 260 273 295 295 286 273 308 305 309 312 301 282 273 271 277 281 278 306 319 336 341 236 191 226 265 286 299 329 319 319 321 322
268 272 274 274 270 264 258 240 227 204 188 214 255 277 289 274 278 294 305 307 302 302 298 302 310 271 281 248 277 284 272 196 249 285 291 244 239 265 292 325 325 326 327 329 326
258 260 264 266 260 254 245 229 243 205 213 235 260 269 170 247 281 301 301 274 282 267 266 292 276 281 265 268 267 250 218 241 278 278 301 244 275 290 269 336 329 330 327 327 330
265 263 256 256 248 242 232 237 227 214 219 248 236 223 203 275 300 298 279 271 271 299 341 291 290 286 277 266 253 239 242 237 227 300 285 289 278 253 314 330 329 328 332 333 342
260 269 270 253 232 225 225 231 234 228 239 233 219 210 267 290 264 282 264 287 301 324 327 309 261 274 280 248 248 235 229 217 232 244 193 305 289 291 328 326 333 335 338 341 345
248 256 262 252 224 217 227 232 234 228 233 218 230 235 237 250 274 258 257 276 299 308 317 298 281 275 270 253 246 226 225 215 208 214 233 238 281 323 327 327 332 340 340 345 349
240 248 249 241 230 232 233 237 231 225 231 228 200 206 230 241 268 230 259 278 292 302 302 299 260 300 280 255 241 236 242 244 245 249 241 158 273 327 324 323 332 341 341 346 348
227 237 240 244 240 238 235 226 231 216 214 219 221 225 240 246 264 270 262 294 259 301 298 286 260 247 252 280 280 229 249 230 234 215 242 243 285 308 319 317 329 338 342 345 351
217 230 235 240 233 229 216 222 201 199 212 210 218 219 237 259 286 281 278 288 298 313 296 272 271 280 286 283 274 265 254 247 239 241 256 272 291 316 308 317 331 337 344 351 353
221 217 228 232 239 225 215 218 202 204 210 212 215 230 239 255 260 276 283 293 296 298 294 274 277 301 302 292 265 261 258 253 249 249 256 269 294 307 308 339 331 344 348 354 2
201 211 225 231 241 228 217 217 218 202 220 224 235 241 257 272 270 276 282 282 274 275 274 276 281 296 275 302 305 291 325 249 253 255 259 269 293 294 300 343 345 356 356 1 14
Height
3116 3113 3110 3108 3107 3105 3103 3100 3097 3094 3092 3091 3089 3086 3084 3083 3081 3078 3076 3074 3072 3070 3069 3067 3066 3065 3064 3064 3063 3062 3061 3058 3059 3059 3059 3058 3057 3058 3058 3058 3057 3058 3058 3059 3059
3112 3109 3107 3104 3101 3099 3098 3096 3093 3091 3089 3087 3085 3083 3080 3078 3077 3075 3073 3070 3068 3066 3065 3063 3062 3061 3060 3060 3059 3058 3056 3055 3056 3055 3054 3054 3054 3053 3054 3054 3054 3053 3054 3054 3053
3109 3107 3104 3101 3098 3096 3093 3091 3088 3086 3084 3082 3080 3078 3076 3074 3073 3070 3069 3067 3065 3063 3061 3059 3058 3058 3057 3056 3055 3052 3051 3052 3052 3051 3050 3049 3049 3048 3048 3049 3049 3050 3048 3047 3047
3104 3101 3099 3097 3093 3090 3089 3086 3083 3080 3078 3076 3074 3073 3071 3070 3072 3067 3065 3063 3061 3059 3057 3056 3055 3054 3053 3052 3050 3048 3048 3048 3047 3047 3045 3044 3043 3042 3042 3045 3043 3043 3043 3042 3041
3100 3097 3093 3090 3088 3086 3083 3080 3077 3075 3072 3070 3068 3067 3066 3066 3065 3062 3061 3059 3057 3055 3054 3052 3051 3049 3048 3047 3046 3044 3044 3043 3042 3041 3040 3038 3038 3036 3036 3037 3038 3037 3037 3036 3035
3095 3093 3090 3086 3082 3079 3077 3075 3072 3069 3066 3063 3062 3061 3061 3061 3059 3057 3056 3054 3052 3051 3051 3049 3046 3044 3043 3043 3042 3040 3040 3039 3037 3036 3033 3031 3031 3030 3031 3033 3031 3030 3030 3028 3028
3088 3086 3084 3081 3077 3074 3071 3069 3066 3064 3061 3058 3057 3055 3056 3056 3054 3052 3051 3050 3049 3047 3046 3044 3043 3041 3040 3039 3037 3036 3034 3033 3032 3030 3027 3026 3021 3020 3025 3023 3022 3022 3022 3021 3020
3081 3079 3076 3074 3071 3068 3065 3062 3060 3058 3056 3053 3052 3051 3051 3050 3048 3048 3046 3046 3045 3043 3041 3040 3038 3038 3036 3036 3033 3031 3030 3028 3027 3026 3024 3022 3014 3019 3018 3017 3017 3017 3017 3015 3014
3074 3072 3069 3067 3064 3062 3059 3057 3053 3052 3050 3049 3048 3047 3047 3045 3045 3043 3042 3040 3037 3037 3035 3035 3034 3033 3033 3031 3031 3029 3026 3025 3023 3022 3020 3018 3012 3014 3014 3013 3012 3012 3011 3009 3009
3069 3067 3064 3060 3058 3055 3054 3051 3048 3047 3045 3044 3042 3045 3044 3043 3040 3039 3036 3034 3033 3031 3031 3032 3031 3030 3030 3029 3027 3026 3024 3022 3020 3019 3015 3013 3008 3009 3008 3006 3006 3005 3004 3004 3002
3066 3062 3058 3056 3053 3050 3048 3047 3047 3044 3040 3040 3039 3038 3037 3038 3036 3034 3031 3031 3030 3029 3029 3028 3028 3027 3027 3026 3025 3024 3021 3018 3017 3015 3009 3007 3003 3003 3003 3000 2999 2999 2998 2996 2996
3062 3058 3054 3051 3049 3046 3044 3043 3040 3040 3038 3034 3034 3034 3033 3031 3032 3031 3030 3029 3028 3027 3026 3026 3023 3024 3023 3022 3021 3020 3017 3014 3012 3009 3006 3003 2996 2996 2992 2991 2991 2990 2990 2991 2991
3060 3056 3050 3047 3043 3042 3040 3040 3036 3033 3033 3031 3029 3030 3031 3030 3029 3029 3029 3028 3025 3024 3023 3021 3022 3020 3020 3019 3018 3016 3014 3011 3010 3004 3003 2998 2989 2986 2986 2986 2986 2985 2987 2987 2986
3055 3052 3048 3044 3043 3038 3037 3035 3033 3030 3029 3029 3028 3029 3029 3028 3028 3026 3026 3027 3025 3022 3020 3019 3017 3017 3016 3016 3015 3012 3010 3008 3006 3004 3002 2999 2994 2985 2983 2984 2984 2984 2985 2984 2980
3049 3047 3045 3040 3037 3035 3035 3031 3029 3029 3034 3029 3026 3027 3027 3027 3027 3025 3023 3022 3021 3020 3020 3018 3015 3014 3013 3013 3012 3010 3008 3005 3003 3001 2999 2993 2996 2982 2982 2981 2982 2982 2981 2977 2973
3043 3041 3039 3037 3034 3032 3030 3027 3028 3031 3026 3026 3024 3025 3025 3023 3023 3021 3021 3020 3018 3015 3015 3012 3011 3010 3009 3009 3009 3008 3006 3001 2999 2998 2997 2989 2992 2981 2980 2981 2980 2979 2976 2971 2967
3034 3034 3032 3031 3030 3027 3026 3026 3029 3025 3023 3023 3022 3022 3022 3021 3020 3019 3018 3018 3017 3015 3011 3010 3007 3006 3007 3007 3006 3005 3004 3001 3002 2999 2992 2988 2989 2979 2979 2979 2979 2976 2971 2966 2961
3026 3026 3024 3025 3024 3022 3023 3024 3023 3018 3017 3018 3018 3018 3018 3018 3018 3017 3015 3015 3015 3014 3010 3007 3006 3005 3004 3006 3005 3003 3003 3003 3006 3002 2991 2987 2982 2979 2978 2978 2976 2971 2965 2961 2956
3015 3016 3017 3017 3017 3017 3018 3018 3014 3014 3015 3014 3015 3015 3016 3017 3017 3014 3013 3013 3012 3011 3011 3007 3005 3003 3003 3003 3005 3001 3000 3001 2998 2994 2994 2982 2979 2977 2976 2976 2973 2968 2963 2959 2954
3008 3007 3008 3009 3010 3011 3013 3011 3010 3010 3011 3011 3013 3013 3013 3014 3014 3013 3011 3010 3009 3009 3008 3007 3004 2999 3000 3000 2999 2998 2999 2999 2997 2998 2994 2979 2978 2975 2975 2974 2971 2965 2961 2955 2951
3002 3002 3004 3002 3004 3004 3006 3006 3005 3007 3008 3009 3009 3010 3011 3012 3011 3011 3010 3009 3008 3007 3006 3005 3004 3000 2998 2996 2995 2996 2995 2995 2996 2994 2993 2991 2978 2975 2974 2971 2967 2963 2957 2952 2947
2994 2996 2999 2999 3001 2997 2998 3002 3002 3003 3004 3005 3005 3007 3008 3009 3008 3008 3008 3007 3007 3006 3004 3002 3000 2996 2994 2992 2992 2992 2992 2992 2992 2992 2990 2990 2980 2974 2972 2969 2965 2961 2955 2951 2946
2986 2989 2993 2995 2994 2993 2995 2998 2998 3000 3002 3002 3003 3004 3005 3006 3008 3006 3005 3005 3004 3004 3002 3000 2998 2994 2990 2991 2989 2989 2988 2988 2989 2989 2986 2989 2977 2974 2970 2967 2964 2960 2954 2950 2946
2982 2984 2986 2989 2990 2991 2991 2994 2994 2997 2999 2999 3001 3002 3003 3004 3005 3003 3002 3002 3001 3000 2997 2997 2993 2992 2990 2988 2987 2985 2984 2984 2985 2985 2981 2979 2975 2974 2969 2966 2964 2959 2954 2950 2946
2974 2976 2980 2982 2984 2985 2988 2990 2991 2995 2996 2997 2999 3000 3001 3002 3002 3000 3000 2999 2998 2996 2994 2993 2989 2987 2985 2984 2982 2980 2980 2981 2980 2981 2980 2975 2972 2972 2967 2966 2962 2958 2955 2952 2948
2966 2971 2975 2979 2980 2982 2984 2986 2989 2992 2994 2995 2997 2998 2998 2999 3000 2998 2997 2997 2994 2992 2991 2990 2987 2984 2979 2977 2975 2973 2973 2973 2975 2974 2972 2972 2971 2969 2966 2966 2962 2958 2955 2952 2949
2964 2966 2972 2976 2977 2980 2981 2984 2986 2989 2992 2993 2994 2995 2995 2996 2995 2994 2992 2991 2990 2988 2987 2987 2985 2983 2977 2974 2972 2969 2967 2968 2967 2967 2970 2970 2971 2968 2967 2965 2962 2959 2957 2954 2951